{"data":{"norad_id":61885,"intl_designator":"2024-204M","name":"STARLINK-11301 [DTC]","alt_names":[],"object_type":"PAYLOAD","status":"ACTIVE","operator":null,"country":"US","launch_date":"2024-11-09","launch_site_code":"AFWTR","launch_vehicle":null,"mission":null,"orbit_class":"UNKNOWN","rcs_meters":null,"size_class":null,"mass_kg":null,"dimensions":null,"purposes":["comms"],"wikipedia_slug":null,"has_3d_model":false,"image_url":null,"decayed_at":null,"tle_current":{"epoch":"2026-09-21T19:53:54.616704Z","epoch_age_seconds":73445,"freshness":"FRESH","line1":"1 61885U 24204M   26264.82910436 -.00000362  00000+0  18658-5 0  9997","line2":"2 61885  53.1593 109.1356 0000890 115.6433 244.4677 15.69708027107727","mean_motion":15.69708027,"eccentricity":8.9e-5,"inclination_deg":53.1593,"raan_deg":109.1356,"arg_perigee_deg":115.6433,"mean_anomaly_deg":244.4677,"bstar":1.8658e-6,"rev_number":10772,"period_min":91.736805522496,"perigee_km":359.13272602019,"apogee_km":360.33206677275,"semimajor_km":6737.8693963965,"source":"CELESTRAK","updated_at":"2026-09-22T09:00:49.446655Z"}}}